Time,TemperatureF,DewpointF,PressureIn,WindDirection,WindDirectionDegrees,WindSpeedMPH,WindSpeedGustMPH,Humidity,HourlyPrecipIn,Conditions,Clouds,dailyrainin,SolarRadiationWatts/m^2,SoftwareType,DateUTC
2013-05-30 00:13:00,65.8,59.0,29.58,SW,229,0.0,0.0,78,0.00,,,0.00,0,weatherlink.com 1.10,2013-05-29 22:13:00,
2013-05-30 00:28:00,65.5,59.0,29.57,SW,227,0.0,0.0,79,0.00,,,0.00,0,weatherlink.com 1.10,2013-05-29 22:28:00,
2013-05-30 00:43:00,65.3,59.0,29.57,SW,227,0.0,1.0,80,0.00,,,0.00,0,weatherlink.com 1.10,2013-05-29 22:43:00,
2013-05-30 00:58:00,64.6,58.0,29.57,SW,227,1.0,7.0,78,0.00,,,0.00,0,weatherlink.com 1.10,2013-05-29 22:58:00,
2013-05-30 01:13:00,63.9,57.0,29.55,North,360,3.0,11.0,78,0.07,,,0.07,0,weatherlink.com 1.10,2013-05-29 23:13:00,
2013-05-30 01:28:00,62.0,56.0,29.55,North,360,2.0,4.0,81,0.12,,,0.12,0,weatherlink.com 1.10,2013-05-29 23:28:00,
2013-05-30 01:43:00,61.7,57.0,29.54,WNW,301,2.0,6.0,83,0.13,,,0.13,0,weatherlink.com 1.10,2013-05-29 23:43:00,
2013-05-30 01:58:00,62.2,56.0,29.54,WSW,249,0.0,2.0,80,0.13,,,0.13,0,weatherlink.com 1.10,2013-05-29 23:58:00,
2013-05-30 02:13:00,62.5,56.0,29.53,WSW,250,0.0,2.0,80,0.06,,,0.13,0,weatherlink.com 1.10,2013-05-30 00:13:00,
2013-05-30 02:28:00,62.9,58.0,29.53,NW,311,0.0,3.0,83,0.02,,,0.13,0,weatherlink.com 1.10,2013-05-30 00:28:00,
2013-05-30 02:43:00,63.0,58.0,29.53,SE,143,1.0,8.0,83,0.00,,,0.13,0,weatherlink.com 1.10,2013-05-30 00:43:00,
2013-05-30 02:58:00,62.3,57.0,29.53,WSW,240,0.0,1.0,84,0.00,,,0.13,0,weatherlink.com 1.10,2013-05-30 00:58:00,
2013-05-30 03:13:00,61.7,58.0,29.53,WSW,242,0.0,1.0,86,0.00,,,0.13,0,weatherlink.com 1.10,2013-05-30 01:13:00,
2013-05-30 03:28:00,61.4,58.0,29.53,NNE,19,0.0,1.0,87,0.00,,,0.13,0,weatherlink.com 1.10,2013-05-30 01:28:00,
2013-05-30 03:43:00,61.2,57.0,29.53,WSW,243,1.0,1.0,87,0.00,,,0.13,0,weatherlink.com 1.10,2013-05-30 01:43:00,
2013-05-30 03:58:00,61.2,57.0,29.53,North,360,0.0,2.0,87,0.00,,,0.13,0,weatherlink.com 1.10,2013-05-30 01:58:00,
2013-05-30 04:13:00,61.4,58.0,29.53,WSW,256,0.0,2.0,87,0.00,,,0.13,0,weatherlink.com 1.10,2013-05-30 02:13:00,
2013-05-30 04:28:00,61.3,58.0,29.53,North,360,0.0,1.0,88,0.00,,,0.13,0,weatherlink.com 1.10,2013-05-30 02:28:00,
2013-05-30 04:43:00,61.2,58.0,29.54,WNW,283,0.0,1.0,88,0.00,,,0.13,0,weatherlink.com 1.10,2013-05-30 02:43:00,
2013-05-30 04:58:00,61.0,58.0,29.54,North,360,0.0,0.0,88,0.00,,,0.13,0,weatherlink.com 1.10,2013-05-30 02:58:00,
2013-05-30 05:13:00,60.7,57.0,29.54,West,281,0.0,1.0,88,0.00,,,0.13,0,weatherlink.com 1.10,2013-05-30 03:13:00,
2013-05-30 05:28:00,60.5,57.0,29.55,WNW,283,0.0,1.0,89,0.00,,,0.13,5,weatherlink.com 1.10,2013-05-30 03:28:00,
2013-05-30 05:43:00,60.4,57.0,29.55,WNW,282,0.0,1.0,89,0.00,,,0.13,5,weatherlink.com 1.10,2013-05-30 03:43:00,
2013-05-30 05:58:00,60.6,58.0,29.55,West,281,0.0,1.0,90,0.00,,,0.13,9,weatherlink.com 1.10,2013-05-30 03:58:00,
2013-05-30 06:13:00,60.6,58.0,29.54,North,360,0.0,2.0,90,0.00,,,0.13,33,weatherlink.com 1.10,2013-05-30 04:13:00,
2013-05-30 06:28:00,60.9,58.0,29.53,West,281,0.0,2.0,91,0.00,,,0.13,70,weatherlink.com 1.10,2013-05-30 04:28:00,
2013-05-30 06:43:00,61.3,58.0,29.52,WNW,291,0.0,1.0,90,0.00,,,0.13,81,weatherlink.com 1.10,2013-05-30 04:43:00,
2013-05-30 06:58:00,61.7,59.0,29.52,WNW,295,0.0,3.0,91,0.00,,,0.13,83,weatherlink.com 1.10,2013-05-30 04:58:00,
2013-05-30 07:13:00,61.3,58.0,29.52,North,360,0.0,1.0,90,0.00,,,0.13,53,weatherlink.com 1.10,2013-05-30 05:13:00,
2013-05-30 07:28:00,61.3,58.0,29.52,WNW,295,0.0,1.0,90,0.00,,,0.13,39,weatherlink.com 1.10,2013-05-30 05:28:00,
2013-05-30 07:43:00,61.6,59.0,29.51,North,360,0.0,1.0,90,0.00,,,0.13,47,weatherlink.com 1.10,2013-05-30 05:43:00,
2013-05-30 07:58:00,61.4,59.0,29.52,WNW,294,0.0,1.0,90,0.00,,,0.13,51,weatherlink.com 1.10,2013-05-30 05:58:00,
2013-05-30 08:13:00,61.6,59.0,29.51,North,360,0.0,1.0,91,0.00,,,0.13,65,weatherlink.com 1.10,2013-05-30 06:13:00,
2013-05-30 08:28:00,61.9,59.0,29.51,WNW,293,0.0,3.0,91,0.02,,,0.15,91,weatherlink.com 1.10,2013-05-30 06:28:00,
2013-05-30 08:43:00,61.6,59.0,29.51,North,360,0.0,4.0,90,0.02,,,0.15,174,weatherlink.com 1.10,2013-05-30 06:43:00,
2013-05-30 08:58:00,61.0,58.0,29.50,ESE,104,0.0,1.0,90,0.02,,,0.15,141,weatherlink.com 1.10,2013-05-30 06:58:00,
2013-05-30 09:14:00,61.4,58.0,29.50,NNE,22,0.0,1.0,89,0.02,,,0.15,56,weatherlink.com 1.10,2013-05-30 07:14:00,
2013-05-30 09:29:00,61.3,58.0,29.50,NNE,18,0.0,1.0,88,0.00,,,0.15,62,weatherlink.com 1.10,2013-05-30 07:29:00,
2013-05-30 09:44:00,60.9,58.0,29.49,NNE,18,0.0,1.0,89,0.03,,,0.18,25,weatherlink.com 1.10,2013-05-30 07:44:00,
2013-05-30 09:59:00,60.9,58.0,29.49,NNE,18,0.0,1.0,90,0.11,,,0.26,53,weatherlink.com 1.10,2013-05-30 07:59:00,
2013-05-30 10:14:00,60.9,58.0,29.49,NNE,15,2.0,4.0,90,0.20,,,0.35,35,weatherlink.com 1.10,2013-05-30 08:14:00,
2013-05-30 10:29:00,60.1,58.0,29.49,NE,40,2.0,4.0,91,0.20,,,0.35,179,weatherlink.com 1.10,2013-05-30 08:29:00,
2013-05-30 10:44:00,60.5,58.0,29.48,North,5,2.0,3.0,92,0.16,,,0.35,160,weatherlink.com 1.10,2013-05-30 08:44:00,
2013-05-30 10:59:00,60.5,58.0,29.49,North,5,1.0,1.0,92,0.09,,,0.35,190,weatherlink.com 1.10,2013-05-30 08:59:00,
2013-05-30 11:14:00,62.1,60.0,29.48,North,5,0.0,3.0,93,0.00,,,0.35,209,weatherlink.com 1.10,2013-05-30 09:14:00,
2013-05-30 11:29:00,62.4,60.0,29.48,North,5,2.0,3.0,91,0.01,,,0.36,192,weatherlink.com 1.10,2013-05-30 09:29:00,
2013-05-30 11:44:00,61.9,59.0,29.48,North,5,0.0,3.0,90,0.02,,,0.37,105,weatherlink.com 1.10,2013-05-30 09:44:00,
2013-05-30 11:59:00,61.8,59.0,29.48,North,5,0.0,3.0,90,0.05,,,0.40,39,weatherlink.com 1.10,2013-05-30 09:59:00,
2013-05-30 12:14:00,61.3,58.0,29.48,North,5,3.0,3.0,90,0.09,,,0.45,23,weatherlink.com 1.10,2013-05-30 10:14:00,
2013-05-30 12:29:00,60.7,58.0,29.48,North,5,0.0,1.0,91,0.12,,,0.48,23,weatherlink.com 1.10,2013-05-30 10:29:00,
2013-05-30 12:44:00,60.8,59.0,29.47,North,5,0.0,0.0,92,0.13,,,0.50,25,weatherlink.com 1.10,2013-05-30 10:44:00,
2013-05-30 12:59:00,61.2,59.0,29.47,North,5,0.0,0.0,92,0.09,,,0.50,123,weatherlink.com 1.10,2013-05-30 10:59:00,
2013-05-30 13:14:00,61.2,59.0,29.47,SW,233,10.0,10.0,92,0.05,,,0.50,304,weatherlink.com 1.10,2013-05-30 11:14:00,
2013-05-30 13:29:00,62.7,60.0,29.46,SW,236,1.0,9.0,90,0.02,,,0.50,406,weatherlink.com 1.10,2013-05-30 11:29:00,
2013-05-30 13:44:00,63.7,59.0,29.46,SSW,213,1.0,11.0,83,0.00,,,0.50,448,weatherlink.com 1.10,2013-05-30 11:44:00,
2013-05-30 13:59:00,63.3,58.0,29.46,WNW,282,1.0,9.0,83,0.00,,,0.50,877,weatherlink.com 1.10,2013-05-30 11:59:00,
2013-05-30 14:14:00,62.3,56.0,29.47,WSW,237,11.0,11.0,81,0.01,,,0.50,468,weatherlink.com 1.10,2013-05-30 12:14:00,
2013-05-30 14:29:00,61.9,57.0,29.47,SW,215,5.0,9.0,83,0.01,,,0.50,478,weatherlink.com 1.10,2013-05-30 12:29:00,
2013-05-30 14:44:00,61.7,56.0,29.48,SW,219,3.0,11.0,80,0.01,,,0.50,522,weatherlink.com 1.10,2013-05-30 12:44:00,
2013-05-30 14:59:00,61.6,55.0,29.49,North,360,1.0,11.0,80,0.01,,,0.50,216,weatherlink.com 1.10,2013-05-30 12:59:00,
2013-05-30 15:14:00,61.9,56.0,29.49,WSW,252,2.0,8.0,81,0.00,,,0.50,418,weatherlink.com 1.10,2013-05-30 13:14:00,
2013-05-30 15:29:00,62.5,56.0,29.48,SSW,202,3.0,5.0,80,0.00,,,0.50,793,weatherlink.com 1.10,2013-05-30 13:29:00,
2013-05-30 15:44:00,63.0,55.0,29.50,SSW,201,4.0,12.0,75,0.00,,,0.50,271,weatherlink.com 1.10,2013-05-30 13:44:00,
2013-05-30 15:59:00,62.4,54.0,29.50,SSW,210,1.0,8.0,75,0.00,,,0.50,221,weatherlink.com 1.10,2013-05-30 13:59:00,
2013-05-30 16:14:00,62.3,55.0,29.50,SW,227,2.0,11.0,77,0.00,,,0.50,234,weatherlink.com 1.10,2013-05-30 14:14:00,
2013-05-30 16:29:00,61.5,54.0,29.51,SW,227,7.0,8.0,76,0.00,,,0.50,120,weatherlink.com 1.10,2013-05-30 14:29:00,
2013-05-30 16:44:00,61.2,54.0,29.51,SW,232,0.0,9.0,76,0.00,,,0.50,200,weatherlink.com 1.10,2013-05-30 14:44:00,
2013-05-30 16:59:00,60.9,54.0,29.50,North,360,1.0,7.0,78,0.00,,,0.50,223,weatherlink.com 1.10,2013-05-30 14:59:00,
2013-05-30 17:14:00,60.2,53.0,29.50,WSW,247,3.0,9.0,78,0.00,,,0.50,149,weatherlink.com 1.10,2013-05-30 15:14:00,
2013-05-30 17:29:00,59.4,54.0,29.50,SSW,205,2.0,11.0,81,0.00,,,0.50,125,weatherlink.com 1.10,2013-05-30 15:29:00,
2013-05-30 17:44:00,58.7,53.0,29.50,SW,236,1.0,7.0,82,0.00,,,0.50,102,weatherlink.com 1.10,2013-05-30 15:44:00,
2013-05-30 17:59:00,58.5,54.0,29.51,SW,235,3.0,7.0,84,0.00,,,0.50,123,weatherlink.com 1.10,2013-05-30 15:59:00,
2013-05-30 18:14:00,58.0,53.0,29.50,South,181,2.0,8.0,83,0.00,,,0.50,109,weatherlink.com 1.10,2013-05-30 16:14:00,
2013-05-30 18:29:00,57.6,53.0,29.50,North,360,2.0,9.0,84,0.00,,,0.50,86,weatherlink.com 1.10,2013-05-30 16:29:00,
2013-05-30 18:44:00,57.2,52.0,29.50,SW,220,4.0,8.0,83,0.00,,,0.50,72,weatherlink.com 1.10,2013-05-30 16:44:00,
2013-05-30 18:59:00,57.0,52.0,29.51,SW,215,2.0,8.0,83,0.00,,,0.50,88,weatherlink.com 1.10,2013-05-30 16:59:00,
2013-05-30 19:29:00,57.0,52.0,29.53,SW,236,0.0,8.0,82,0.00,,,0.50,16,weatherlink.com 1.10,2013-05-30 17:29:00,
2013-05-30 19:44:00,56.7,51.0,29.53,SW,221,0.0,4.0,82,0.00,,,0.50,9,weatherlink.com 1.10,2013-05-30 17:44:00,
2013-05-30 19:59:00,56.5,51.0,29.53,SW,232,0.0,1.0,82,0.00,,,0.50,12,weatherlink.com 1.10,2013-05-30 17:59:00,
2013-05-30 20:14:00,56.1,51.0,29.54,SW,232,2.0,5.0,82,0.00,,,0.50,0,weatherlink.com 1.10,2013-05-30 18:14:00,
2013-05-30 20:29:00,55.9,51.0,29.55,WSW,239,0.0,2.0,83,0.00,,,0.50,0,weatherlink.com 1.10,2013-05-30 18:29:00,
2013-05-30 20:44:00,55.8,51.0,29.55,WSW,241,0.0,1.0,83,0.00,,,0.50,0,weatherlink.com 1.10,2013-05-30 18:44:00,
2013-05-30 20:59:00,55.5,50.0,29.55,North,360,0.0,1.0,82,0.00,,,0.50,0,weatherlink.com 1.10,2013-05-30 18:59:00,
2013-05-30 21:29:00,55.0,50.0,29.55,WSW,241,0.0,2.0,82,0.00,,,0.50,0,weatherlink.com 1.10,2013-05-30 19:29:00,
2013-05-30 21:45:00,54.9,50.0,29.55,WSW,239,0.0,1.0,83,0.00,,,0.50,0,weatherlink.com 1.10,2013-05-30 19:45:00,
2013-05-30 22:00:00,54.7,50.0,29.55,WSW,241,0.0,2.0,84,0.00,,,0.50,0,weatherlink.com 1.10,2013-05-30 20:00:00,
2013-05-30 22:15:00,54.5,50.0,29.55,WSW,238,0.0,2.0,85,0.00,,,0.50,0,weatherlink.com 1.10,2013-05-30 20:15:00,
2013-05-30 22:30:00,54.3,50.0,29.55,WSW,238,0.0,1.0,86,0.00,,,0.50,0,weatherlink.com 1.10,2013-05-30 20:30:00,
2013-05-30 22:45:00,54.0,50.0,29.55,SW,236,0.0,3.0,87,0.00,,,0.50,0,weatherlink.com 1.10,2013-05-30 20:45:00,
2013-05-30 23:00:00,53.9,50.0,29.54,WSW,240,0.0,1.0,87,0.00,,,0.50,0,weatherlink.com 1.10,2013-05-30 21:00:00,
2013-05-30 23:15:00,53.8,50.0,29.54,WSW,240,0.0,2.0,88,0.00,,,0.50,0,weatherlink.com 1.10,2013-05-30 21:15:00,
2013-05-30 23:30:00,53.6,50.0,29.54,WSW,242,0.0,2.0,87,0.00,,,0.50,0,weatherlink.com 1.10,2013-05-30 21:30:00,
2013-05-30 23:45:00,53.4,50.0,29.54,WSW,240,0.0,3.0,87,0.00,,,0.50,0,weatherlink.com 1.10,2013-05-30 21:45:00,